Flag for Canada Weather past 2 weeks in Rouyn-Noranda, Quebec, Canada

Now
19 °F

Light snow. Overcast.


Feels Like: 13 °F
Forecast: 14 / 24 °F
Wind: 5 mph from South

Location: Rouyn Airport

Current Time: Dec 22, 2014 at 3:57:50 AM

Latest Report: Dec 22, 2014 at 3:00 AM


Visibility: 15 mi

Pressure: 30.28 "Hg

Humidity: 93%

Dew point: 18 °F

Location of Rouyn-NorandaLocation

Historic Weather in Rouyn-Noranda — Graph

°F

Rouyn-Noranda temperature yesterday

Maximum temperature yesterday: 18 °F (at 3:00 PM)
Minimum temperature yesterday: -13 °F (at 6:00 AM)
Average temperature yesterday: 3 °F

Past Weeks' High & Low Weather Summary

 TemperatureHumidityPressure
High34 °F (Dec 16, 12:00 PM)100% (Dec 12, 12:00 AM)30.86 "Hg (Dec 12, 12:00 AM)
Low-13 °F (Dec 7, 8:00 AM)49% (Dec 8, 10:54 AM)29.86 "Hg (Dec 17, 5:00 AM)
Average14 °F87%30.18 "Hg
* Reported Dec 7 2:00 AM — Dec 22 2:00 AM, Rouyn-Noranda, Weather by CustomWeather, © 2014

Note: Actual official high and low records may vary slightly from our data, if they occured in-between our weather recording intervals... More about our weather records

Advertising

Rouyn-Noranda weather history for previous 24 hours

 ConditionsComfort  
Time TempWeatherWind HumidityBarometerVisibility
2:00 AM
Dec 22
19 °FLight snow. Overcast.6 mph93%30.28 "Hg15 mi
1:00 AM18 °FLight snow. Overcast.3 mph93%30.28 "Hg15 mi
12:00 AM18 °FLight snow. Overcast.5 mph86%30.29 "Hg15 mi
11:00 PM
Dec 21
16 °FLight snow. Overcast.5 mph93%30.31 "Hg15 mi
10:00 PM16 °FLight snow. Overcast.7 mph93%30.32 "Hg15 mi
9:00 PM16 °FLight snow. Overcast.2 mph93%30.33 "Hg15 mi
8:00 PM16 °FLight snow. Overcast.3 mph93%30.34 "Hg12 mi
7:00 PM18 °FLight snow. Overcast.7 mph86%30.34 "Hg8 mi
6:00 PM18 °FLight snow. Overcast.5 mph93%30.32 "Hg8 mi
5:00 PM18 °FSnow flurries. Overcast.3 mph93%30.32 "Hg12 mi
4:00 PM18 °FPartly sunny.6 mph93%30.31 "Hg15 mi
3:00 PM18 °FPartly sunny.5 mph93%30.30 "Hg15 mi
2:00 PM14 °FPartly sunny.No wind92%30.29 "Hg15 mi
1:00 PM12 °FPartly sunny.5 mph92%30.32 "Hg15 mi
12:00 PM9 °FMostly cloudy.2 mph92%30.33 "Hg15 mi
11:47 AM7 °FPartly sunny.3 mph85%30.34 "Hg15 mi
11:00 AM1 °FSnow flurries. Partly sunny.No wind85%30.36 "Hg15 mi
10:00 AM-4 °FSnow flurries. Partly sunny.No wind77%30.37 "Hg15 mi
9:00 AM-8 °FSnow flurries. Partly sunny.2 mph84%30.36 "Hg15 mi
8:00 AM-11 °FSnow flurries. Partly cloudy.2 mph76%30.38 "Hg15 mi
7:00 AM-13 °FSnow flurries. Passing clouds.2 mph76%30.36 "Hg15 mi
6:00 AM-13 °FSnow flurries. Passing clouds.2 mph76%30.35 "Hg15 mi
5:00 AM-11 °FSnow flurries. Passing clouds.No wind84%30.34 "Hg10 mi
4:00 AM-11 °FSnow flurries. Passing clouds.No wind76%30.34 "Hg6 mi
3:00 AM-11 °FSnow flurries. Passing clouds.2 mph84%30.35 "Hg4 mi
Weather by CustomWeather, © 2014

See weather overviewHow to use our weather pages